Volver al catálogo

THORAD DELTA 1 DEB

ActivoSSO
NORAD 8184·DEBRIS·🇺🇸 United States

Lanzado Nov 15, 1974 desde Vandenberg Space Force Base

Loading…

Próximos Pases (próximas 24 horas)

TLE

ActualizadoSource: Space-Track

Época: Sep 14, 2026, 07:38 UTC

1 08184U 74089BA  26257.31810396 -.00000032  00000-0  75202-4 0  9998
2 08184 101.5523 214.9206 0063418 301.3616 221.0054 12.47613896360028

Sigue THORAD DELTA 1 DEB en tiempo real con AllMySat

Download on the App Store